Weather History for Hagerstown, MD

Change the Weather History Date:

Saturday, January 19, 2013

  Actual Average Record
Temperature  
Mean Temperature 43 °F -  
Max Temperature 56 °F 33 °F 56 °F (2013)
Min Temperature 29 °F 20 °F 3 °F (1997)
Degree Days  
Heating Degree Days 22    
Month to date heating degree days 522  
Moisture  
Dew Point 23 °F    
Average Humidity 51    
Maximum Humidity 75    
Minimum Humidity 26    
Precipitation  
Precipitation 0.00 in - - ()
Month to date precipitation 1.27  
Year to date precipitation 1.27  
Sea Level Pressure  
Sea Level Pressure 30.17 in    
Wind  
Wind Speed 11 mph (South)    
Max Wind Speed 21 mph    
Max Gust Speed 26 mph    
Visibility 10 miles    
Events      
Averages and records for this station are not official NWS values.
T = Trace of Precipitation, MM = Missing Value Source: NWS Daily Summary

Daily Weather History Graph

Daily Weather History Graph

Search for Another Location

Airport:

Trip Planner

Search our weather history database for the weather conditions in past years. The results will help you decide how hot, cold, wet, or windy it might be!

Date:

Astronomy

Jan. 19, 2013 Rise Set
Actual Time 7:28 AM EST 5:15 PM EST
Civil Twilight 6:58 AM EST 5:45 PM EST
Nautical Twilight 6:25 AM EST 6:18 PM EST
Astronomical Twilight 5:53 AM EST 6:50 PM EST
Moon 11:40 AM EST (1/19) 1:00 AM EST (1/19)
Length of Visible Light 10h 46m
Length of Day
9h 47m
First Quarter, 57% of the Moon is Illuminated
Jan 19
First Quarter
Jan 26
Full
Feb 3
Last Quarter
Feb 10
New
Feb 17
First Quarter

Hourly Weather History & Observations

Time (EST) Temp. Windchill Dew Point Humidity Pressure Visibility Wind Dir Wind Speed Gust Speed Precip Events Conditions
1:53 AM 28.9 °F 21.9 °F 21.0 °F 72% 30.38 in 10.0 mi South 6.9 mph - N/A   Clear
2:53 AM 30.0 °F 21.1 °F 21.0 °F 69% 30.35 in 10.0 mi South 10.4 mph - N/A   Clear
3:53 AM 30.0 °F 20.5 °F 21.9 °F 72% 30.34 in 10.0 mi South 11.5 mph - N/A   Scattered Clouds
4:53 AM 28.9 °F 20.4 °F 21.9 °F 75% 30.32 in 10.0 mi South 9.2 mph - N/A   Clear
5:53 AM 30.0 °F 21.7 °F 21.0 °F 69% 30.32 in 10.0 mi South 9.2 mph - N/A   Clear
6:53 AM 30.0 °F 20.0 °F 21.0 °F 69% 30.31 in 10.0 mi South 12.7 mph - N/A   Clear
7:53 AM 30.9 °F 23.5 °F 19.9 °F 64% 30.30 in 10.0 mi South 8.1 mph - N/A   Clear
8:53 AM 35.1 °F 27.4 °F 19.9 °F 54% 30.30 in 10.0 mi South 10.4 mph - N/A   Clear
9:53 AM 37.9 °F 30.5 °F 21.0 °F 51% 30.30 in 10.0 mi South 11.5 mph - N/A   Clear
10:53 AM 42.1 °F 35.2 °F 21.9 °F 45% 30.28 in 10.0 mi South 12.7 mph - N/A   Clear
11:53 AM 45.0 °F 38.9 °F 23.0 °F 42% 30.23 in 10.0 mi South 12.7 mph - N/A   Clear
12:53 PM 48.9 °F - 25.0 °F 39% 30.17 in 10.0 mi South 11.5 mph - N/A   Clear
1:53 PM 53.1 °F - 21.9 °F 30% 30.13 in 10.0 mi SSW 10.4 mph 20.7 mph N/A   Clear
2:53 PM 55.9 °F - 21.9 °F 27% 30.09 in 10.0 mi South 16.1 mph 21.9 mph N/A   Clear
3:53 PM 55.9 °F - 21.0 °F 26% 30.06 in 10.0 mi South 16.1 mph 23.0 mph N/A   Clear
4:53 PM 52.0 °F - 26.1 °F 37% 30.06 in 10.0 mi SSE 11.5 mph - N/A   Clear
5:53 PM 50.0 °F - 27.0 °F 41% 30.04 in 10.0 mi South 16.1 mph - N/A   Clear
6:53 PM 46.9 °F - 28.0 °F 48% 30.04 in 10.0 mi SSE 15.0 mph - N/A   Clear
7:53 PM 45.0 °F 39.3 °F 27.0 °F 49% 30.04 in 10.0 mi South 11.5 mph - N/A   Clear
8:53 PM 45.0 °F 38.5 °F 27.0 °F 49% 30.01 in 10.0 mi South 13.8 mph - N/A   Clear
9:53 PM 43.0 °F 36.0 °F 26.1 °F 51% 29.99 in 10.0 mi South 13.8 mph - N/A   Clear
10:53 PM 43.0 °F 36.0 °F 25.0 °F 49% 29.96 in 10.0 mi South 13.8 mph - N/A   Clear
11:53 PM 43.0 °F 35.7 °F 24.1 °F 47% 29.93 in 10.0 mi South 15.0 mph - N/A   Clear